Parsons, KS

12:48 PM CDT on July 21, 2017 (GMT -0500)
Tri-City

Weather History for KPPF - August, 2013

Change the Weather History Date:

Friday, August 23, 2013

  Actual Average Record
Temperature  
Mean Temperature 81 °F -  
Max Temperature 91 °F 91 °F 104 °F (1983)
Min Temperature 71 °F 66 °F 53 °F (1949)
Cooling Degree Days 16    
Growing Degree Days 31 (Base 50)    
Moisture  
Dew Point 70 °F    
Average Humidity 70    
Maximum Humidity 90    
Minimum Humidity 50    
Precipitation  
Precipitation 0.00 in - - ()
Sea Level Pressure  
Sea Level Pressure 30.02 in    
Wind  
Wind Speed 2 mph (ESE)    
Max Wind Speed 7 mph    
Max Gust Speed -    
Visibility 10 miles    
Events      
Averages and records for this station are not official NWS values.
T = Trace of Precipitation, MM = Missing Value Source: NWS Daily Summary

Daily Weather History Graph

Daily Weather History Graph

Search for Another Location

Airport or City:

Trip Planner

Search our weather history database for the weather conditions in past years. The results will help you decide how hot, cold, wet, or windy it might be!

Date:

Astronomy

Aug. 23, 2013 Rise Set
Actual Time 6:45 AM CDT 8:03 PM CDT
Civil Twilight 6:18 AM CDT 8:30 PM CDT
Nautical Twilight 5:45 AM CDT 9:02 PM CDT
Astronomical Twilight 5:11 AM CDT 9:36 PM CDT
Moon 9:28 PM CDT (8/23) 9:36 AM CDT (8/23)
Length of Visible Light 14h 12m
Length of Day
13h 17m
Waning Gibbous, 91% of the Moon is Illuminated
Aug 23
Waning Gibbous
Aug 28
Last Quarter
Sep 5
New
Sep 12
First Quarter
Sep 19
Full

Hourly Weather History & Observations

Time (CDT) Temp. Heat Index Dew Point Humidity Pressure Visibility Wind Dir Wind Speed Gust Speed Precip Events Conditions
12:52 AM 75.9 °F - 68.0 °F 76% 30.03 in 10.0 mi Variable 3.5 mph - N/A   Clear
1:52 AM 75.9 °F - 68.0 °F 76% 30.03 in 10.0 mi Calm Calm - N/A   Clear
2:52 AM 72.0 °F - 66.9 °F 84% 30.02 in 10.0 mi Calm Calm - N/A   Clear
3:52 AM 72.0 °F - 68.0 °F 87% 30.03 in 10.0 mi East 3.5 mph - N/A   Clear
4:52 AM 72.0 °F - 68.0 °F 87% 30.03 in 9.0 mi Calm Calm - N/A   Clear
5:52 AM 72.0 °F - 68.0 °F 87% 30.04 in 9.0 mi Calm Calm - N/A   Clear
6:52 AM 71.1 °F - 68.0 °F 90% 30.05 in 7.0 mi ENE 3.5 mph - N/A   Clear
7:52 AM 73.0 °F - 68.0 °F 84% 30.06 in 9.0 mi Calm Calm - N/A   Clear
8:52 AM 80.1 °F 83.2 °F 70.0 °F 71% 30.07 in 10.0 mi Calm Calm - N/A   Mostly Cloudy
9:52 AM 82.9 °F 87.0 °F 70.0 °F 65% 30.06 in 10.0 mi Variable 3.5 mph - N/A   Clear
10:52 AM 82.9 °F 87.0 °F 70.0 °F 65% 30.08 in 10.0 mi Variable 3.5 mph - N/A   Mostly Cloudy
11:52 AM 88.0 °F 93.8 °F 71.1 °F 57% 30.06 in 10.0 mi Variable 5.8 mph - N/A   Partly Cloudy
12:52 PM 90.0 °F 95.4 °F 70.0 °F 52% 30.04 in 10.0 mi Variable 4.6 mph - N/A   Clear
1:52 PM 91.0 °F 96.6 °F 70.0 °F 50% 30.02 in 10.0 mi Variable 4.6 mph - N/A   Clear
2:52 PM 91.0 °F 96.6 °F 70.0 °F 50% 30.01 in 10.0 mi SE 6.9 mph - N/A   Clear
3:52 PM 91.9 °F 98.4 °F 71.1 °F 50% 29.99 in 10.0 mi SSE 6.9 mph - N/A   Partly Cloudy
4:52 PM 91.0 °F 96.6 °F 70.0 °F 50% 29.99 in 10.0 mi SE 5.8 mph - N/A   Clear
5:52 PM 90.0 °F 95.4 °F 70.0 °F 52% 29.99 in 10.0 mi SE 4.6 mph - N/A   Clear
6:52 PM 87.1 °F 92.8 °F 71.1 °F 59% 29.98 in 10.0 mi SE 4.6 mph - N/A   Clear
7:52 PM 84.0 °F 89.6 °F 72.0 °F 67% 29.98 in 10.0 mi Calm Calm - N/A   Clear
8:52 PM 80.1 °F 83.6 °F 71.1 °F 74% 29.99 in 10.0 mi Calm Calm - N/A   Clear
9:52 PM 79.0 °F - 70.0 °F 74% 30.01 in 10.0 mi Calm Calm - N/A   Clear
10:52 PM 77.0 °F - 70.0 °F 79% 30.02 in 10.0 mi ESE 3.5 mph - N/A   Clear
11:52 PM 73.9 °F - 70.0 °F 87% 30.02 in 10.0 mi Calm Calm - N/A   Clear